Regional Weather Roundup
Issued by NWS Northern Indiana

Home | Current Version | Previous Version | Graphics & Text | Print | Product List | Glossary Off
Versions: 1 2 3 4 5 6 7 8 9 10 11 12 13 14 15 16 17 18 19 20 21 22 23 24 25 26 27 28 29 30 31 32 33 34 35 36 37 38 39 40 41 42 43 44 45 46 47 48 49 50

752
ASUS43 KIWX 012010
RWRIWX

KIWX WEATHER ROUNDUP
NATIONAL WEATHER SERVICE NORTHERN INDIANA
300 PM EST WED MAR 01 2017

NOTE: "FAIR" INDICATES FEW OR NO CLOUDS BELOW 12,000 FEET WITH NO
SIGNIFICANT WEATHER AND/OR OBSTRUCTIONS TO VISIBILITY.

* THESE STATIONS ARE NOT UNDER NWS QUALITY CONTROL. THEY ALSO MAY NOT
  REPORT WEATHER SUCH AS PRECIPITATION OR FOG.

INZ001>027-012100-
NORTHERN INDIANA

CITY           SKY/WX    TMP DP  RH WIND       PRES   REMARKS
GARY*          LGT RAIN  41  37  87 W17G32    29.65R
VALPARAISO     CLOUDY    41  37  86 W24G37    29.64R
MICHIGAN CITY* DRIZZLE   37  37 100 W8        29.62R
LAPORTE*       CLOUDY    40  37  88 W9G16     29.62R
KNOX*          CLOUDY    39  27  60 W26G35    29.63R
SOUTH BEND     LGT RAIN  37  35  92 W14       29.60R
ELKHART*       LGT RAIN  37  36  93 W9G17     29.58R
GOSHEN         CLOUDY    39  35  86 W23G31    29.58R
MONTICELLO*    CLOUDY    40  36  84 W26G40    29.69R
LOGANSPORT*    CLOUDY    41  36  81 W32G43    29.69R
ROCHESTER*     CLOUDY    45  39  81 W20G29    29.63R
WARSAW*        DRIZZLE   43  37  81 W23G30    29.59R
ANGOLA*        CLOUDY    39  37  93 W22G37    29.53R
FORT WAYNE     DRIZZLE   45  40  82 W25G35    29.58R
HUNTINGTON*    CLOUDY    43  40  91 W18G41    29.61R
PERU/GRISSOM   CLOUDY    42  40  93 W30G45    29.65R
MARION*        CLOUDY    43  39  85 W33G40    29.66R

$$
INZ028>050-012100-
CENTRAL INDIANA

CITY           SKY/WX    TMP DP  RH WIND       PRES   REMARKS
LAFAYETTE      CLOUDY    43  36  76 W29G41    29.71R
KOKOMO*        CLOUDY    42  38  85 W33G41    29.67R
MUNCIE*        CLOUDY    46  40  79 W25G37    29.65R
INDIANAPOLIS   CLOUDY    45  38  76 W23G39    29.74R

$$
MIZ043>046-050>051-056>058-064>065-071>073-077>080-012100-
SOUTHWEST LOWER MICHIGAN

CITY           SKY/WX    TMP DP  RH WIND       PRES   REMARKS
BATTLE CREEK   CLOUDY    38  34  85 W25G32    29.50R
BENTON HARBOR  CLOUDY    35  33  92 NW14G22   29.60R WCI  26
COLDWATER*     CLOUDY    40  37  91 W22G30    29.52R FOG
HILLSDALE*     CLOUDY    41  36  81 W21G35    29.47R
HOLLAND        CLOUDY    35  31  85 W23G33    29.54R WCI  23
GRAND RAPIDS   PTSUNNY   37  30  75 W29G38    29.45R
KALAMAZOO      CLOUDY    37  30  75 W18G29    29.53R
STURGIS*       LGT RAIN  37  35  90 W13G24    29.54R
THREE RIVERS*  CLOUDY    38  33  85 W18G28    29.55R

$$
OHZ001>008-015>018-024>025-012100-
NORTHWEST OHIO

CITY           SKY/WX    TMP DP  RH WIND       PRES   REMARKS
WAUSEON*       CLOUDY    48  43  81 W28G44    29.47R
DEFIANCE       CLOUDY    46  39  76 W17G32    29.52R
FINDLAY        CLOUDY    51  42  71 W38G52    29.52R
TOLEDO EXPRESS CLOUDY    48  44  86 W31G41    29.46R
TOLEDO METCALF LGT RAIN  54  47  77 W32G52    29.44R
LIMA           CLOUDY    49  43  80 W31G43    29.58R

$$
AND FOR LAKE MICHIGAN COASTAL AND OPEN LAKE BUOY OBSERVATIONS

STATION/POSITION TEMP    WIND        PRES    VSBY  WAVE
                 AIR SEA DIR/SP/G                  HT/PER
                 (F)     (DEG/KT/KT) (MB)    (MI)  (FT/S)
CALUMET HARBOR    39     250/ 10/ 18 1003.1R
MICHIGAN CITY     37     250/ 10/ 12   N/A
BURNS HARBOR      40     280/ 18/ 22 1003.4R
SAINT JOSEPH      36     310/ 17/ 20 1003.0

$$
&&




USA.gov is the U.S. government's official web portal to all federal, state and local government web resources and services.